Location: Pasadena-CA
(34.1440°N, 118.1100°W)
Time: 10:49:54
(UTC-08:00)

N. Korean satellite - Visible Passes

Search period start: 22 January 2022 00:00
Search period end: 01 February 2022 00:00
Orbit: 447 x 491 km, 97.3° (Epoch: 21 January)

Date Brightness Start Highest point End Pass type
(mag) Time Alt. Az. Time Alt. Az. Time Alt. Az.
22 Jan 9.4 04:37:21 12° SSE 04:37:21 12° SSE 04:37:47 10° SSE visible
22 Jan9.306:11:24WSW06:11:24WSW06:04:25NNWvisible
23 Jan10.104:07:56SE04:07:56SE04:01:17NEvisible
23 Jan 9.0 05:35:14 10° N 05:41:58 - SW 05:35:20 11° NNW visible
24 Jan 8.9 05:05:46 10° N 05:12:31 14° SSW 05:13:00 10° SSW visible
25 Jan 9.2 04:36:50 10° NNE 04:43:02 13° SSE 04:43:33 10° SSE visible
25 Jan8.906:17:04WSW06:17:04WSW06:11:14NWvisible
26 Jan10.004:13:32SE04:13:32SE04:08:05NEvisible
26 Jan 8.3 05:40:57 10° NNW 05:47:33 - SW 05:42:09 17° NNW visible
27 Jan 7.9 05:11:18 10° N 05:18:01 13° SSW 05:18:29 10° SSW visible
28 Jan 8.5 04:42:13 10° NNE 04:48:26 15° SSE 04:49:08 10° S visible
29 Jan 9.6 04:13:55 10° NE 04:18:49 10° SE 04:15:01 14° ENE visible
29 Jan 7.8 05:46:33 10° NNW 05:52:49 - SW 05:49:05 22° WNW visible
30 Jan 6.6 05:16:44 10° N 05:23:06 15° SSW 05:23:49 10° SSW visible
31 Jan 7.3 04:47:31 10° NNE 04:51:04 51° E 04:54:33 10° S visible
